Regional Weather Roundup
Issued by NWS Sioux Falls, SD

Home | Current Version | Previous Version | Graphics & Text | Print | Product List | Glossary On
Versions: 1 2 3 4 5 6 7 8 9 10 11 12 13 14 15 16 17 18 19 20 21 22 23 24 25 26 27 28 29 30 31 32 33 34 35 36 37 38 39 40 41 42 43 44 45 46 47 48 49 50
000
ASUS43 KFSD 261010
RWRFSD

WEATHER ROUNDUP FOR SE SOUTH DAKOTA/SW MINNESOTA/NW IOWA
NATIONAL WEATHER SERVICE SIOUX FALLS SD
500 AM CDT MON SEP 26 2016

NOTE: "FAIR" INDICATES FEW OR NO CLOUDS BELOW 12,000 FEET WITH NO
SIGNIFICANT WEATHER AND OR OBSTRUCTIONS TO VISIBILITY.


SDZ038>040-050-052>070-261100-
SOUTHEAST SOUTH DAKOTA

CITY           SKY/WX    TMP DP  RH WIND       PRES   REMARKS
BROOKINGS      CLEAR     45  36  70 W9        30.12R
CHAMBERLAIN    CLEAR     48  38  66 W12       30.22S
HURON          PTCLDY    42  35  76 W9        30.16S
MADISON        FAIR      41  36  81 W9        30.15S
MITCHELL       CLEAR     46  36  68 W10       30.19R
SIOUX FALLS    PTCLDY    45  36  70 W8        30.15S
WINNER         FAIR      48  35  60 W8        30.24F
YANKTON        CLEAR     52  34  50 W12       30.18S
$$

MNZ071-072-080-081-089-090-097-098-261100-
SOUTHWEST MINNESOTA

CITY           SKY/WX    TMP DP  RH WIND       PRES   REMARKS
FAIRMONT       CLEAR     50  38  63 W13       30.06S
JACKSON        CLEAR     46  36  66 W13G18    30.09R
LUVERNE        CLEAR     43  34  70 W9        30.14S
MARSHALL       CLEAR     48  37  65 W15       30.07S
MONTEVIDEO     CLEAR     48  37  66 NW12      30.05S
PIPESTONE      CLEAR     45  36  70 W7        30.12R
REDWOOD FALLS  CLEAR     50  37  61 W15       30.03R
TRACY          CLEAR     49  39  67 W7        30.08S
WINDOM         CLEAR     48  37  66 W10       30.08R
WORTHINGTON    CLEAR     45  37  73 W12       30.12R
$$

IAZ001>003-012>014-020>022-031-032-NEZ013-014-SDZ071-261100-
NORTHWEST IOWA

CITY           SKY/WX    TMP DP  RH WIND       PRES   REMARKS
CHEROKEE       CLEAR     45  39  79 W7        30.16R
DENISON        CLEAR     45  41  87 SW3       30.16S
ESTHERVILLE    CLEAR     48  38  68 W9        30.09R
LE MARS        CLEAR     45  37  76 NW5       30.18R
ORANGE CITY    CLEAR     45  39  81 W6        30.16S
SHELDON        CLEAR     45  37  76 W8        30.13R
SIOUX CITY     CLEAR     48  38  68 W7        30.19R
SPENCER        CLEAR     44  39  82 W9        30.12R
STORM LAKE     CLEAR     45  39  81 W10       30.16R
$$

ABBREVIATIONS USED IN REMARKS
   TC - TEMPERATURE IN CELSIUS
  WCI - WIND CHILL INDEX
   HX - HEAT INDEX
  VSB - VISIBILITY





USA.gov is the U.S. government's official web portal to all federal, state and local government web resources and services.